EW7083 Weather Reports


time (UTC)temp
C
wind
direction
speed
KPH
gust
KPH
rain 1hr
cm
rain 24hr
cm
rain mn
cm
humidity
%
barometer
mb
20260504045120 4 180 0.0 0.0 0.00 0.00 0.00 100 560.1
20260504044118 3 180 0.0 0.0 0.00 0.00 0.00 100 560.1
20260504043120 4 180 0.0 0.0 0.00 0.00 0.00 100 560.1
20260504042118 4 180 0.0 0.0 0.00 0.00 0.00 100 560.1
20260504041119 4 180 0.0 0.0 0.00 0.00 0.00 100 560.1
20260504040117 5 360 0.0 0.0 0.00 0.00 0.00 100 560.1
20260504035126 5 180 0.0 0.0 0.00 0.00 0.00 100 560.1
20260504034126 5 180 0.0 0.0 0.00 0.00 0.00 100 560.1
20260504034025 5 180 0.0 0.0 0.00 0.00 0.00 100 560.1
20260504032125 6 180 0.0 0.0 0.00 0.00 0.00 100 560.1
20260504031123 6 180 0.0 0.0 0.00 0.00 0.00 100 560.1
20260504030125 6 180 0.0 0.0 0.00 0.00 0.00 100 560.1
20260504025124 6 180 0.0 0.0 0.00 0.00 0.00 100 560.1
20260504024127 6 180 0.0 0.0 0.00 0.00 0.00 100 560.1
20260504023224 6 180 0.0 0.0 0.00 0.00 0.00 100 560.1
20260504023125 6 180 0.0 0.0 0.00 0.00 0.00 100 560.1
20260504020227 7 180 0.0 0.0 0.00 0.00 0.00 100 560.1
20260504013423 8 180 0.0 0.0 0.00 0.00 0.00 100 560.1
20260504012426 8 202 0.0 0.0 0.00 0.00 0.00 100 560.1
20260504011424 8 202 0.0 0.0 0.00 0.00 0.00 100 560.1
20260504010426 8 202 0.0 0.0 0.00 0.00 0.00 100 560.1
20260504005424 9 202 0.0 0.0 0.00 0.00 0.00 100 560.1
20260504005326 8 202 0.0 0.0 0.00 0.00 0.00 100 560.1
20260504004326 10 202 0.0 0.0 0.00 0.00 0.00 100 560.1
20260504003327 11 202 0.0 0.0 0.00 0.00 0.00 100 560.1
20260504002424 12 202 0.0 0.0 0.00 0.00 0.00 100 560.1
20260504000424 13 199 0.0 0.0 0.00 0.00 0.00 100 560.1
20260503235426 13 225 0.0 0.0 0.00 0.00 0.00 100 560.1
20260503234426 15 202 0.0 0.0 0.00 0.00 0.00 100 560.1
20260503232326 16 315 0.0 0.0 0.00 0.00 0.00 100 560.1
20260503231423 17 202 0.0 0.0 0.00 0.00 0.00 100 560.1
20260503230423 18 292 0.0 0.0 0.00 0.00 0.00 100 560.1
20260503225425 18 315 0.0 3.2 0.00 0.00 0.00 100 560.1
20260503224424 18 282 0.0 0.0 0.00 0.00 0.00 100 560.1
20260503223425 18 315 0.0 0.0 0.00 0.00 0.00 100 560.1
20260503221523 17 304 3.2 8.0 0.00 0.00 0.00 100 560.1
20260503220526 17 292 0.0 4.8 0.00 0.00 0.00 100 560.1
20260503215624 17 274 1.6 6.4 0.00 0.00 0.00 100 560.1
20260503214624 17 287 0.0 4.8 0.00 0.00 0.00 100 560.1
20260503213624 17 263 1.6 8.0 0.00 0.00 0.00 100 560.1
20260503212624 17 212 1.6 6.4 0.00 0.00 0.00 100 560.1
20260503211623 17 235 9.7 19.3 0.00 0.00 0.00 100 560.1
20260503210624 17 245 4.8 9.7 0.00 0.00 0.00 100 560.1
20260503205724 16 22 0.0 1.6 0.00 0.00 0.00 100 560.1
20260503204727 17 264 1.6 12.9 0.00 0.00 0.00 100 560.1
20260503202727 17 46 3.2 8.0 0.00 0.00 0.00 100 560.1
20260503201724 16 332 1.6 6.4 0.00 0.00 0.00 100 560.1
20260503200724 16 14 6.4 9.7 0.00 0.00 0.00 100 560.1
20260503193925 16 85 4.8 14.5 0.00 0.00 0.00 100 560.1
20260503192926 16 234 0.0 4.8 0.00 0.00 0.00 100 560.1
20260503191923 15 337 4.8 12.9 0.00 0.00 0.00 100 560.1
20260503185924 15 311 3.2 8.0 0.00 0.00 0.00 100 560.1
20260503184926 15 315 0.0 0.0 0.00 0.00 0.00 100 560.1
20260503182925 14 295 0.0 0.0 0.00 0.00 0.00 100 560.1
20260503181925 14 360 0.0 0.0 0.00 0.00 0.00 100 560.1
20260503180926 14 348 3.2 8.0 0.00 0.00 0.00 100 560.1
20260503180024 13 289 0.0 0.0 0.00 0.00 0.00 100 560.1
20260503175025 13 316 1.6 6.4 0.00 0.00 0.00 100 560.1
20260503174024 13 339 4.8 11.3 0.00 0.00 0.00 100 560.1
20260503173024 13 152 6.4 14.5 0.00 0.00 0.00 100 560.1
20260503172025 13 285 0.0 6.4 0.00 0.00 0.00 100 560.1
20260503170123 12 312 0.0 4.8 0.00 0.00 0.00 100 560.1
20260503150124 10 306 4.8 12.9 0.00 0.00 0.00 100 560.1
20260503130525 7 315 0.0 0.0 0.00 0.00 0.00 100 560.1
20260503110223 1 180 0.0 0.0 0.00 0.00 0.00 100 560.1
20260503090325 3 180 0.0 0.0 0.00 0.00 0.00 100 560.1
20260503072524 3 180 0.0 0.0 0.00 0.00 0.00 100 560.1
20260503071525 3 180 0.0 0.0 0.00 0.00 0.00 100 560.1
20260503054624 3 162 0.0 0.0 0.00 0.00 0.00 100 560.1
20260503053625 3 247 0.0 0.0 0.00 0.00 0.00 100 560.1